Regional Weather Roundup
Issued by NWS

Home | Current Version | Previous Version | Graphics & Text | Print | Product List | Glossary On
Versions: 1 2 3 4 5 6 7 8 9 10 11 12 13 14 15 16 17 18 19 20 21 22 23 24 25 26 27 28 29 30 31 32 33 34 35 36 37 38 39 40 41 42 43 44 45 46 47 48 49 50
920
ASUS44 KJAN 241510
RWRMS

MISSISSIPPI HOURLY WEATHER ROUNDUP
NATIONAL WEATHER SERVICE JACKSON MS
900 AM CST MON NOV 24 2014

NOTE: "FAIR: INDICATES FEW OR NO CLOUDS BELOW 12,000 FEET WITH NO
SIGNIFICANT WEATHER AND/OR OBSTRUCTIONS TO VISIBILITY.

MSZ001>002-007>008-010>013-018>021-025>028-034>036-241600-
NORTHWEST MISSISSIPPI

CITY           SKY/WX    TMP DP  RH WIND       PRES   REMARKS
CLARKSDALE     FAIR      50  39  66 W20       29.89R
CLEVELAND      FAIR      52  45  77 NW15G21   29.89R
GREENWOOD      SUNNY     53  40  61 NW8G17    29.90R
GREENVILLE     SUNNY     52  39  61 NW21      29.90R
GRENADA        FAIR      52  41  66 W8        29.89R
OLIVE BRANCH   MOSUNNY   48  36  61 W12G23    29.83R
OXFORD         PTSUNNY   50  37  62 W16G26    29.87R
TUNICA         SUNNY     50  37  62 W14       29.88R
$$

MSZ003>006-009-014>017-022>024-029>033-037>039-241600-
NORTHEAST MISSISSIPPI

CITY           SKY/WX    TMP DP  RH WIND       PRES   REMARKS
COLUMBUS AFB   CLOUDY    56  46  68 W10G21    29.85R
CORINTH        CLOUDY    52  41  66 NW16      29.82R
GOLDN TRIANGLE PTSUNNY   55  45  67 W16       29.85R
STARKVILLE     CLOUDY    54  46  76 W7        29.86R
TUPELO         CLOUDY    54  41  61 W9        29.84R
$$

MSZ040-058-241600-
CENTRAL MISSISSIPPI

CITY           SKY/WX    TMP DP  RH WIND       PRES   REMARKS
JACKSON INTL   PTSUNNY   55  44  66 NW8       29.91R
JACKSON HAWKNS CLOUDY    54  43  66 NW12      29.92R
MERIDIAN KEY   MOSUNNY   62  50  64 NW12      29.87R
MERIDIAN NAS   MOSUNNY   62  50  64 W16       29.87R
RAYMOND        FAIR      55  50  82 NW13      29.93R
VICKSBURG      SUNNY     55  42  61 NW10      29.94R
$$

MSZ059>079-241600-
SOUTH MISSISSIPPI

CITY           SKY/WX    TMP DP  RH WIND       PRES   REMARKS
BROOKHAVEN     CLOUDY    54  48  82 NW13      29.93R
COLUMBIA       FAIR      63  50  63 MISG        N/A
HATTIESBURG    PTSUNNY   65  57  75 NW10      29.88R
MCCOMB         MOSUNNY   56  48  74 NW10      29.92R
NATCHEZ        MOSUNNY   54  43  66 NW12G17   29.95R
PINE BELT      MOSUNNY   63  54  72 W8        29.89R
$$

MSZ080>082-241600-
COASTAL MISSISSIPPI

CITY           SKY/WX    TMP DP  RH WIND       PRES   REMARKS
BAY ST LOUIS   MOSUNNY   70  61  73 NW8       29.86R
BILOXI         SUNNY     71  66  84 W2        29.85R
PASCAGOULA     MOSUNNY   71  63  75 W7        29.85R
GULFPORT       MOSUNNY   70  63  78 W8        29.85R
$$



USA.gov is the U.S. government's official web portal to all federal, state and local government web resources and services.